(121884) = 2000 DA3 = 2003 SO232

Discovered at Oizumi on 2000-02-27 by T. Kobayashi.

Orbit

Orbit type: Main Belt

Note: WebGL enabled browser required.

epoch2023-09-13.0
epoch JD2460200.5
perihelion date2021-02-04.10754
perihelion JD2459249.60754
argument of perihelion (°)64.89454
ascending node (°)40.27193
inclination (°)9.74658
eccentricity0.1052220
perihelion distance (AU)2.7561324
Tisserand w.r.t. Jupiter3.2
ΔV w.r.t. Earth (km/sec)10.8
semimajor axis (AU)3.0802415
mean anomaly (°)173.36367
mean daily motion (°/day)0.18231680
aphelion distance (AU)3.404
period (years)5.41
P-vector [x]-0.25317545
P-vector [y]0.81539823
P-vector [z]0.52060343
Q-vector [x]-0.96121110
Q-vector [y]-0.27289396
Q-vector [z]-0.04002624
absolute magnitude14.65
phase slope0.15
uncertainty0
referenceMPO 777598
observations used983
oppositions16
arc length (days)8585
first opposition used1998
last opposition used2022
residual rms (arc-secs)0.73
perturbers coarse indicatorM-v
perturbers precise indicator003Ek
first observation date used1998-11-24.0
last observation date used2022-05-27.0
computer nameMPCLINUX
JD of orbit computation2456966.712524
perihelion JD uncertainty (days)2.7186E-04
argument of perihelion uncertainty (°)6.2010E-05
ascending node uncertainty (°)3.6247E-05
inclination uncertainty (°)9.0542E-06
eccentricity uncertainty 5.5271E-08
perihelion distance uncertainty (AU)1.8695E-07
Minimum Orbit Intersection Distances (in AU)
for orbit epoch: 2460200.5, reference: E2023-VB5
Mercury2.43973
Venus2.04479
Earth1.78908
Mars1.16685
Jupiter1.81631
Saturn6.28436
Uranus15.4947
Neptune26.7534

Observations

1005 total observations over interval: 1998 11 24.19502 – 2022 05 27.232920
These data are available for download (format description).

Date (UT) J2000 RA J2000 Dec Magn Location Ref
1998 11 24.19502 04 03 53.39 +26 41 25.8 18.1   704 – Lincoln Laboratory ETS, New Mexico MPS 163210
1998 11 24.24324 04 03 50.52 +26 41 26.8 18.0   704 – Lincoln Laboratory ETS, New Mexico MPS 163210
1998 11 24.29111 04 03 47.61 +26 41 28.8 18.2   704 – Lincoln Laboratory ETS, New Mexico MPS 163210
1998 11 24.33942 04 03 44.58 +26 41 30.9 18.7   704 – Lincoln Laboratory ETS, New Mexico MPS 163210
1998 11 24.38746 04 03 41.39 +26 41 34.3 19.6   704 – Lincoln Laboratory ETS, New Mexico MPS 163210
2000 02 27.57881 11 28 38.34 +16 51 25.5 17.5   411 – Oizumi MPS 11124
2000 02 27.61228 11 28 36.62 +16 51 34.6   411 – Oizumi MPS 11124
2000 02 28.56780 11 27 50.03 +16 55 23.7   411 – Oizumi MPS 11124
2000 02 28.57693 11 27 49.57 +16 55 24.9   411 – Oizumi MPS 11124
2000 03 05.25125 11 23 04.09 +17 16 33.6 18.8   704 – Lincoln Laboratory ETS, New Mexico MPS 11124
2000 03 05.26590 11 23 03.40 +17 16 37.4 18.7   704 – Lincoln Laboratory ETS, New Mexico MPS 11124
2000 03 05.27942 11 23 02.64 +17 16 40.6 18.5   704 – Lincoln Laboratory ETS, New Mexico MPS 11124
2000 03 05.29290 11 23 01.98 +17 16 43.3 18.4   704 – Lincoln Laboratory ETS, New Mexico MPS 11124
2000 03 05.30639 11 23 01.26 +17 16 45.9 18.3   704 – Lincoln Laboratory ETS, New Mexico MPS 11124
2000 03 08.57640 11 20 13.54 +17 27 14.5   411 – Oizumi MPS 11124
2000 03 08.59144 11 20 12.72 +17 27 16.8   411 – Oizumi MPS 11124
2000 03 12.33799 11 17 00.98 +17 37 36.8 18.2   704 – Lincoln Laboratory ETS, New Mexico MPS 11124
2000 03 12.35071 11 17 00.42 +17 37 38.8 19.3   704 – Lincoln Laboratory ETS, New Mexico MPS 11124
2000 03 12.36344 11 16 59.65 +17 37 40.8 18.9   704 – Lincoln Laboratory ETS, New Mexico MPS 11124
2000 03 12.37617 11 16 58.93 +17 37 42.7 19.2   704 – Lincoln Laboratory ETS, New Mexico MPS 11124
2000 03 12.38889 11 16 58.35 +17 37 45.1 19.6   704 – Lincoln Laboratory ETS, New Mexico MPS 11124
2000 03 24.55340 11 07 14.91 +17 56 07.1   411 – Oizumi MPS 12252
2000 03 24.56855 11 07 14.23 +17 56 07.6   411 – Oizumi MPS 12252
2000 03 26.25058 11 06 01.64 +17 56 44.6 18.4 R 699 – Lowell Observatory-LONEOS MPS 12252
2000 03 26.27200 11 06 00.80 +17 56 44.2   699 – Lowell Observatory-LONEOS MPS 12252
2000 03 26.29342 11 05 59.82 +17 56 45.0   699 – Lowell Observatory-LONEOS MPS 12252
2000 03 26.31490 11 05 58.90 +17 56 44.9   699 – Lowell Observatory-LONEOS MPS 12252
2003 09 18.55966 02 01 04.70 +07 03 33.4 20.3   608 – Haleakala-AMOS MPS 90405
2003 09 18.57008 02 01 04.41 +07 03 32.4 20.2   608 – Haleakala-AMOS MPS 90405
2003 09 18.58032 02 01 04.08 +07 03 31.9 20.4   608 – Haleakala-AMOS MPS 90405
2003 09 24.58207 01 57 53.95 +06 55 51.1 20.6   608 – Haleakala-AMOS MPS 87098
2003 09 24.59242 01 57 53.59 +06 55 50.2 20.4   608 – Haleakala-AMOS MPS 87099
2003 09 24.60319 01 57 53.16 +06 55 49.3 20.2   608 – Haleakala-AMOS MPS 87099
2003 09 28.29290 01 55 35.84 +06 50 00.6 18.7   704 – Lincoln Laboratory ETS, New Mexico MPS 87099
2003 09 28.30645 01 55 35.28 +06 49 59.4 18.9   704 – Lincoln Laboratory ETS, New Mexico MPS 87099
2003 09 28.31927 01 55 34.77 +06 49 58.5 18.9   704 – Lincoln Laboratory ETS, New Mexico MPS 87099
2003 09 28.33219 01 55 34.22 +06 49 57.4 19.1   704 – Lincoln Laboratory ETS, New Mexico MPS 87099
2003 09 28.34551 01 55 33.70 +06 49 55.5 19.0   704 – Lincoln Laboratory ETS, New Mexico MPS 87099
2003 10 14.35511 01 43 20.67 +06 19 05.9 18.7 R 699 – Lowell Observatory-LONEOS MPS 87358
2003 10 14.37501 01 43 19.53 +06 19 03.0   699 – Lowell Observatory-LONEOS MPS 87358
2003 10 14.39489 01 43 18.55 +06 19 00.7   699 – Lowell Observatory-LONEOS MPS 87358
2003 10 14.41466 01 43 17.56 +06 18 59.4   699 – Lowell Observatory-LONEOS MPS 87358
2003 10 21.22990 01 37 28.64 +06 05 24.7 18.2 R 699 – Lowell Observatory-LONEOS MPS 88261
2003 10 21.24984 01 37 27.58 +06 05 22.5   699 – Lowell Observatory-LONEOS MPS 88261
2003 10 21.26990 01 37 26.53 +06 05 20.8   699 – Lowell Observatory-LONEOS MPS 88261
2003 10 21.28511 01 37 25.62 +06 05 22.0 19.4   704 – Lincoln Laboratory ETS, New Mexico MPS 88261
2003 10 21.28996 01 37 25.46 +06 05 19.4   699 – Lowell Observatory-LONEOS MPS 88261
2003 10 21.29709 01 37 25.07 +06 05 19.3 19.2   704 – Lincoln Laboratory ETS, New Mexico MPS 88261
2003 10 21.30935 01 37 24.44 +06 05 18.0 19.2   704 – Lincoln Laboratory ETS, New Mexico MPS 88261
2003 10 21.32115 01 37 23.78 +06 05 15.7 19.5   704 – Lincoln Laboratory ETS, New Mexico MPS 88261
2003 10 21.33283 01 37 23.16 +06 05 14.5 19.2   704 – Lincoln Laboratory ETS, New Mexico MPS 88261
2003 10 24.23783 01 34 54.01 +05 59 50.5 18.2   704 – Lincoln Laboratory ETS, New Mexico MPS 88261
2003 10 24.25109 01 34 53.40 +05 59 48.4 19.2   704 – Lincoln Laboratory ETS, New Mexico MPS 88261
2003 10 24.26422 01 34 52.63 +05 59 47.1 19.4   704 – Lincoln Laboratory ETS, New Mexico MPS 88261
2003 10 24.27686 01 34 51.90 +05 59 46.0 18.6   704 – Lincoln Laboratory ETS, New Mexico MPS 88261
2003 10 24.28925 01 34 51.27 +05 59 44.5 18.6   704 – Lincoln Laboratory ETS, New Mexico MPS 88261
2003 10 26.27618 01 33 09.94 +05 56 16.5 18.9 V 703 – Catalina Sky Survey MPS 88261
2003 10 26.28978 01 33 09.27 +05 56 15.0 18.8 V 703 – Catalina Sky Survey MPS 88262
2003 10 26.30337 01 33 08.62 +05 56 12.9 18.8 V 703 – Catalina Sky Survey MPS 88262
2003 10 26.31691 01 33 07.86 +05 56 11.9 18.4 V 703 – Catalina Sky Survey MPS 88262
2003 10 28.21450 01 31 32.50 +05 53 05.7 18.8   704 – Lincoln Laboratory ETS, New Mexico MPS 89510
2003 10 28.22753 01 31 31.81 +05 53 04.4 19.2   704 – Lincoln Laboratory ETS, New Mexico MPS 89510
2003 10 28.25475 01 31 30.39 +05 53 01.9 19.4   704 – Lincoln Laboratory ETS, New Mexico MPS 89510
2003 11 16.20560 01 17 51.74 +05 37 31.5 19.5 V 703 – Catalina Sky Survey MPS 90902
2003 11 16.21697 01 17 51.42 +05 37 32.9 19.6 V 703 – Catalina Sky Survey MPS 90902
2003 11 16.22836 01 17 50.92 +05 37 32.6 19.5 V 703 – Catalina Sky Survey MPS 90902
2003 11 16.23970 01 17 50.56 +05 37 30.8 19.2 V 703 – Catalina Sky Survey MPS 90902
2004 01 21.12665 01 27 45.22 +09 45 13.2 19.5 C 704 – Lincoln Laboratory ETS, New Mexico MPS 294150
2004 01 21.13957 01 27 45.88 +09 45 18.9 19.7 C 704 – Lincoln Laboratory ETS, New Mexico MPS 294150
2004 01 21.15231 01 27 46.37 +09 45 23.8 19.4 C 704 – Lincoln Laboratory ETS, New Mexico MPS 294150
2004 12 12.13853 09 00 35.49 +30 17 01.2 19.3 V 201 – Jonathan B. Postel Observatory MPS 121576
2004 12 12.16293 09 00 35.37 +30 17 08.7 19.8 V 201 – Jonathan B. Postel Observatory MPS 121576
2004 12 12.18519 09 00 35.25 +30 17 15.1 20.3 V 201 – Jonathan B. Postel Observatory MPS 121576
2004 12 15.35965 09 00 14.85 +30 33 46.1 18.7   704 – Lincoln Laboratory ETS, New Mexico MPS 121576
2004 12 15.38880 09 00 14.58 +30 33 56.7 19.5   704 – Lincoln Laboratory ETS, New Mexico MPS 121576
2004 12 15.41756 09 00 14.19 +30 34 05.9 19.9   704 – Lincoln Laboratory ETS, New Mexico MPS 121576
2004 12 16.29355 09 00 05.54 +30 38 46.5 18.6 R 699 – Lowell Observatory-LONEOS MPS 121576
2004 12 16.31149 09 00 05.27 +30 38 51.8   699 – Lowell Observatory-LONEOS MPS 121576
2004 12 16.32944 09 00 05.01 +30 38 57.7   699 – Lowell Observatory-LONEOS MPS 121576
2004 12 16.34737 09 00 04.77 +30 39 03.3   699 – Lowell Observatory-LONEOS MPS 121576
2005 01 17.48585 08 40 30.82 +33 36 11.8 18.3   704 – Lincoln Laboratory ETS, New Mexico MPS 124551
2005 01 17.50065 08 40 29.99 +33 36 15.8 18.7   704 – Lincoln Laboratory ETS, New Mexico MPS 124551
2005 01 17.51456 08 40 29.20 +33 36 19.3 18.8   704 – Lincoln Laboratory ETS, New Mexico MPS 124551
2005 01 17.52864 08 40 28.34 +33 36 22.6 19.1   704 – Lincoln Laboratory ETS, New Mexico MPS 124551
2005 02 28.25694 08 07 03.24 +34 10 41.1 18.9 R 703 – Catalina Sky Survey MPS 127088
2005 02 28.26691 08 07 02.98 +34 10 38.6 19.5 R 703 – Catalina Sky Survey MPS 127088
2005 02 28.27660 08 07 02.78 +34 10 37.7 19.0 R 703 – Catalina Sky Survey MPS 127088
2005 02 28.28633 08 07 02.52 +34 10 35.6 18.8 R 703 – Catalina Sky Survey MPS 127088
2006 03 24.45307 14 28 27.51 -11 32 25.3 19.1 R 699 – Lowell Observatory-LONEOS MPS 168736
2006 03 24.46583 14 28 27.03 -11 32 24.2   699 – Lowell Observatory-LONEOS MPS 168736
